Location: Goldingen
(47.2648°N, 8.9617°E)
Time: 01:35:10
(UTC+00:00)

Daily predictions for brighter satellites

Satellite Brightness Start Highest point End
(mag) Time Altitude Azimuth Time Altitude Azimuth Time Altitude Azimuth
USA 267 4.1 01:44:10 10° ENE 01:48:35 43° ENE 01:48:35 43° ENE
Resurs 1-4 Rocket 4.4 01:56:13 10° N 01:57:29 17° N 01:57:29 17° N
CENTAUR R/B 4.1 01:55:10 10° NW 02:02:35 44° NE 02:10:50 10° ESE
Cosmos 2360 Rocket 4.3 02:10:49 10° NNW 02:22:24 - SE 02:12:08 17° NNW
ADEOS II 3.9 02:15:25 10° N 02:17:29 24° N 02:17:29 24° N
IDEFIX/ARIANE 42P 4.0 02:16:47 10° NNE 02:19:41 34° NNE 02:19:41 34° NNE
USA 234 3.5 02:19:01 10° ESE 02:24:09 59° ESE 02:24:09 59° ESE
ADEOS Rocket 4.5 02:30:07 23° NNW 02:30:07 23° NNW 02:32:02 10° NNW
Cosmos 1553 Rocket 4.2 02:32:42 69° ENE 02:32:42 69° ENE 02:38:26 10° NNE
Lacrosse 5 3.1 02:40:09 36° E 02:40:09 36° E 02:43:17 10° ESE
Cosmos 2082 Rocket 3.9 02:42:36 22° NNW 02:42:36 22° NNW 02:45:41 10° N
Cosmos 2333 Rocket 3.4 02:39:27 10° NNW 02:44:54 40° NE 02:50:19 10° ESE
MSX 4.0 02:39:10 10° NNE 02:44:10 68° NNE 02:44:10 68° NNE
Cosmos 2221 4.1 02:53:27 32° NNE 02:53:27 32° NNE 02:55:52 10° NNE
Cosmos 2219 Rocket 3.3 02:54:29 10° NNW 02:59:54 44° NE 03:05:18 10° SE
CZ-2C R/B 3.0 02:57:00 10° NNE 03:01:36 48° E 03:02:02 46° ESE
CZ-2D R/B 4.5 03:06:38 10° NNW 03:06:50 10° NNW 03:06:50 10° NNW
Sich 1 4.5 03:08:23 10° N 03:12:31 37° ENE 03:16:36 10° SE
Cosmos 1606 3.8 03:12:56 44° ENE 03:12:56 44° ENE 03:16:20 10° NNE
GEOS 3 Rocket 4.4 03:08:49 10° NNE 03:13:38 39° NW 03:13:38 39° NW
USA 238 DEB 3.8 03:06:54 10° NW 03:14:10 89° NE 03:21:45 10° SE
USA 238 3.8 03:07:00 10° NW 03:14:16 89° NE 03:21:52 10° SE
COSMOS 2428 3.6 03:10:45 10° NNW 03:16:18 49° NE 03:21:51 10° SE
ATLAS 3B R/B 4.3 03:11:23 10° NNW 03:17:25 31° NNE 03:23:37 10° E
ATLAS 5 CENTAUR R/B 3.5 03:19:18 17° SE 03:20:43 21° ESE 03:23:57 10° ENE
S3M 3.8 03:21:14 60° SW 03:22:13 71° W 03:28:26 10° N
SeaSat 1 4.3 03:19:11 10° ESE 03:23:24 29° NE 03:27:38 10° N
ARIANE 5 R/B 3.3 03:19:41 10° N 03:23:22 38° NW 03:23:22 38° NW
Cosmos 1745 Rocket 4.0 03:19:21 10° NNW 03:25:32 59° W 03:26:32 53° SW
CZ-4C R/B 3.7 03:30:56 51° ENE 03:30:56 51° ENE 03:34:17 10° N
USA 267 3.5 03:27:18 10° NE 03:33:39 56° NNW 03:35:57 38° WNW
FENGYUN 3A 4.2 03:28:59 10° NNE 03:34:22 58° E 03:39:42 10° S
Cosmos 2322 3.6 03:31:16 10° NNW 03:37:00 85° WSW 03:42:40 10° SSE
Cosmos 1709 Rocket 3.9 03:30:58 10° N 03:37:23 80° W 03:43:44 10° S
H-2A R/B 2.8 03:37:53 10° SE 03:41:58 51° ENE 03:45:59 10° N
NOSS 3-2 (A) 4.1 03:35:24 10° NW 03:42:49 59° WSW 03:51:10 10° SSE
Spot 4 Rocket 4.4 03:41:19 10° N 03:46:10 43° WNW 03:46:28 43° WNW
COSMOS 2487 2.8 03:50:11 51° NNW 03:50:11 51° NNW 03:52:57 10° NNE
Cosmos 1833 4.2 03:48:29 43° WSW 03:50:04 59° WNW 03:55:38 10° NNE
Cosmos 2344 3.5 03:46:42 34° WSW 03:50:10 69° NW 03:58:17 10° NE
Cosmos 1633 Rocket 4.1 03:46:26 10° N 03:50:43 46° ENE 03:54:55 10° SSE
CENTAUR R/B 3.1 03:45:51 10° NW 03:53:57 71° SW 04:02:48 10° SSE
Geosat 4.3 03:49:05 10° NNE 03:54:07 66° ESE 03:58:04 16° SSW
Cosmos 2251 Rocket 3.5 03:53:53 36° SW 03:56:00 66° WNW 04:01:23 10° NNE
Cosmos 614 Rocket 3.9 03:54:14 23° SSW 03:57:32 89° ESE 04:02:47 10° NNE
Meteor 1-20 Rocket 4.3 03:53:00 10° N 03:58:45 82° E 04:04:33 10° SSE
Cosmos 2360 Rocket 4.1 04:04:23 12° SSW 04:04:23 12° SSW 04:04:54 10° SSW
IDEFIX/ARIANE 42P 4.2 03:57:33 10° NNW 04:00:30 18° NW 04:00:30 18° NW
ISS -3.8 04:00:41 62° NW 04:01:08 78° NNE 04:04:30 10° ESE
Cosmos 1933 3.4 03:58:06 13° S 04:01:40 77° E 04:05:44 10° NNE
Meteor 2-17 Rocket 4.4 03:56:46 10° NNW 04:02:44 61° W 04:08:39 10° S
ALOS 2.2 03:58:09 10° NNE 04:02:51 84° WNW 04:07:02 13° SSW
PAYLOAD A 4.4 03:57:53 10° N 04:02:57 46° WNW 04:05:04 31° WSW
CZ-2C R/B 3.9 04:01:38 10° N 04:04:15 27° NW 04:04:15 27° NW
Cosmos 2237 Rocket 3.2 04:02:11 10° NNW 04:07:42 47° NE 04:13:08 10° SE
Cosmos 2333 4.5 04:02:27 10° NW 04:07:57 45° WSW 04:13:24 10° S
USA 234 3.9 04:03:17 10° S 04:09:02 33° SW 04:11:34 25° W
Meteor 1-31 Rocket 3.7 04:06:52 10° NNE 04:10:37 48° E 04:14:20 10° S
Iridium 51 4.2 04:07:36 10° N 04:11:24 76° E 04:14:55 10° S
Cosmos 407 Rocket 3.7 04:07:27 10° SSW 04:12:36 70° ESE 04:17:43 10° NNE
CZ-4C R/B 2.1 04:10:13 20° SSW 04:13:44 80° SE 04:19:42 10° NE
PSLV R/B 3.9 04:11:15 10° N 04:15:25 45° WNW 04:17:21 27° SW
USA 276 2.1 04:16:02 48° W 04:16:47 73° NNW 04:19:59 10° ENE
Lacrosse 5 2.5 04:19:24 27° W 04:21:02 33° SW 04:25:31 10° SSE
NOSS 3-4 (A) 3.5 04:16:30 13° SSW 04:21:46 80° SE 04:28:07 10° NE
NOSS 3-4 (C) 3.5 04:16:34 13° SSW 04:21:53 79° SE 04:28:13 10° NE
Cosmos 192 4.3 04:18:53 10° NNW 04:23:47 62° WSW 04:28:39 10° S
Cosmos 1190 Rocket 4.4 04:18:59 10° S 04:24:15 69° ESE 04:29:33 10° NNE
Cosmos 1328 Rocket 3.8 04:20:22 10° S 04:24:39 71° E 04:28:57 10° NNE
NOSS 3-2 (C) 4.2 04:17:28 10° NW 04:24:50 53° WSW 04:33:04 10° SSE
Cosmos 2227 Rocket 4.1 04:22:24 10° SSE 04:27:17 31° ESE 04:32:12 10° NE
Cosmos 2333 Rocket 2.7 04:23:52 10° NW 04:29:09 38° WSW 04:34:26 10° S
SJ-12 4.2 04:25:09 10° NNE 04:29:13 67° ESE 04:33:14 10° S
Cosmos 2221 4.5 04:30:18 13° NW 04:30:18 13° NW 04:31:50 10° NNW
SL-16 R/B 4.1 04:25:31 10° NNW 04:30:31 30° NE 04:35:28 10° ESE
Cosmos 1484 Rocket 3.0 04:28:52 10° N 04:32:26 44° WNW 04:35:27 13° SW
Cosmos 1437 Rocket 2.7 04:30:14 10° SSW 04:34:18 83° W 04:38:20 10° N
Cosmos 1470 Rocket 3.7 04:31:07 10° N 04:35:29 77° E 04:39:49 10° SSE
CZ-4B R/B 4.2 04:31:49 10° NNE 04:36:13 49° E 04:40:35 10° S
Landsat 5 4.3 04:33:16 10° SSW 04:36:28 25° W 04:39:43 10° NW
ATLAS 2AS CENTAUR R/B 3.3 04:29:11 10° SSW 04:37:04 74° SE 04:44:51 10° NE
CZ-2C R/B 3.5 04:35:51 10° NNW 04:39:31 23° WNW 04:41:25 18° W
CZ-4B R/B 1.1 04:37:25 10° SSE 04:40:30 86° ENE 04:43:34 10° NNW
COSMO-SKYMED 1 2.5 04:37:07 10° S 04:41:27 79° WSW 04:45:50 10° NNW
Envisat 4.4 04:37:12 10° NNE 04:42:02 42° E 04:46:49 10° SSE
Cosmos 2297 Rocket 3.2 04:36:53 10° S 04:42:17 50° ESE 04:47:44 10° NE
Cosmos 2219 Rocket 2.8 04:38:41 10° NW 04:43:44 34° WSW 04:48:46 10° SSW
Cosmos 1782 2.7 04:40:19 10° SSW 04:44:14 68° W 04:48:12 10° N
Cosmos 1606 4.4 04:47:58 15° WNW 04:48:33 16° WNW 04:51:00 10° NNW
Sich 1 4.2 04:46:30 10° NW 04:49:58 23° W 04:53:25 10° SW
Cosmos 1140 Rocket 3.5 04:44:51 10° SSW 04:50:01 67° WNW 04:55:13 10° NNE
Cosmos 1500 3.1 04:48:42 10° N 04:52:31 86° W 04:56:20 10° S
Cosmos 1980 3.7 04:46:59 10° NNW 04:52:41 80° WSW 04:58:20 10° SSE
Meteor 1-26 Rocket 4.3 04:47:22 10° SSW 04:53:04 64° WNW 04:58:59 10° N
METEOR-M 4.5 04:48:22 10° N 04:53:26 44° WNW 04:58:26 10° SW
ERS-2 3.2 04:51:22 10° SSE 04:54:52 50° ENE 04:58:26 10° N
Cosmos 1933 Rocket 3.7 04:51:25 10° N 04:55:55 84° E 05:00:23 10° S
Cosmos 1666 Rocket 4.3 04:53:24 10° NNW 04:57:14 30° W 05:01:05 10° SSW
Cosmos 2074 Rocket 4.1 04:52:08 10° NNW 04:58:06 51° W 05:04:03 10° SSW
COSMOS 2428 3.5 04:55:27 10° NW 05:00:21 30° WSW 05:05:14 10° SSW
MOS 1 Rocket 3.4 04:56:27 10° S 05:00:41 47° W 05:05:12 10° NNW
SeaSat 1 2.6 04:55:54 10° S 05:00:42 52° WSW 05:05:32 10° NW
Cosmos 2228 Rocket 4.4 04:56:49 10° SSE 05:01:10 46° E 05:05:33 10° NNE
BREEZE M DEB (TANK) 2.8 04:59:34 12° WNW 05:02:16 74° SSW 05:10:42 10° ESE
BREEZE-M DEB (TANK) 2.6 05:00:38 11° W 05:04:35 54° N 05:06:50 10° E
ATLAS 5 CENTAUR R/B 1.8 05:00:59 10° WSW 05:04:52 48° NW 05:09:20 10° NNE
YAOGAN 6 3.0 05:01:45 10° NNE 05:05:15 63° ESE 05:08:41 10° S
Cosmos 2154 Rocket 4.0 04:59:27 10° NNW 05:05:39 68° W 05:11:51 10° S
CZ-4B R/B 4.3 05:04:48 10° N 05:08:11 35° WNW 05:11:31 10° SW
ADEOS 3.8 05:03:44 10° N 05:08:44 47° WNW 05:13:43 10° SW
ATLAS 3B R/B 2.9 05:01:59 10° NW 05:09:00 87° NE 05:16:19 10° SE
USA 267 4.2 05:10:04 10° ENE 05:15:59 38° N 05:21:53 10° WNW
Cosmos 1536 4.4 05:12:43 10° N 05:16:30 40° ENE 05:20:16 10° SSE
H-2A R/B 3.5 05:15:28 10° SW 05:18:12 17° W 05:20:55 10° NW
Cosmos 1151 Rocket 4.0 05:16:32 10° SW 05:20:11 26° WNW 05:23:50 10° NNW
Cosmos 2219 3.3 05:16:31 10° SSW 05:22:12 88° WNW 05:27:53 10° NNE
